DELTA 1 R/B, 3094

Orbit data source: Space-Track

DELTA 1 R/B, 3094 is space debris in LEO originally from a launch on Thu, 11 Jan 1968 UTC launched from the Air Force Western Test Range (AFWTR). Debris objects in space refer to the collection of defunct objects orbiting the Earth. Examples of debris include non-operational satellites, rocket bodies, and fragments generated from explosions, collisions, or faulty payload assembly.

Loading next visibility...
DELTA 1 R/B details
Identifier
3094, 1968-002B
Orbit
LEO
Last TLE update8 hours ago
Origin
Flag of USGSFC (US)
ManufacturerUTC
MissionSpacecraft
Bus & MotorFW4, Unknown motor
Mass~40 kg wet, ~40 kg dry
Launch date (UTC)
1968-01-11 (57 years ago)
Launch vehicleUnknown
Launch site
Air Force Western Test Range (AFWTR)
Object type
Payload
Rocket body
Debris
Shape & HBRCyl, 1.5 m
Radar Cross Section0.687 m², Medium (>0.1 m² and < 1m²)

Expand to show TLE details & history

TLE from 8 hours ago
0 DELTA 1 R/B
1  3094U 68002B   24356.17981439 -.00000024  00000-0  17253-3 0  9992
2  3094 105.7966  92.8923 0314374 210.0330 180.3222 12.85235874670631
Epoch: 2024-12-21T04:18Z
Definitive object data (Epoch: 2024-12-21T04:18:55.963Z)
Latitude29.12519°
Longitude-71.10067°
Altitude1,565.721 km
Speed6.975 km/s
True Right ascension05h 35m 28s
True Declination28° 59' 39"
Sunlit
Object was in full shadow at TLE epoch
Visualization TLE readout
Latitude74.05015°
Longitude-141.69558°
Altitude1,456.408 km
Speed7.083 km/s
Apparent Right ascension23h 39m 36s
Apparent Declination26° 29' 59"
Sunlit
Object is in daylight
Visualization observer readout
Local Sidereal Time11:07:41
Azimuth352.232° N
Elevation-23.169°
Doppler factor1
Orbital elements
Apogee altitude1,560.222 km
Perigee altitude1,076.313 km
Semi-major axis7,696.405 km
Eccentricity0.0314374
Inclination105.7966°
RAAN92.8923°
Arg. of periapsis210.033°
True anomaly180.30271°
Mean anomaly180.3222°
Eccentric anomaly180.31238°
Mean motion3.21448 °/min
BSTAR0.00017253
Orbital period111.99 mins
Loading maneuver chart data...
Loading historical data...
Loading historical data...
Loading historical data...
Loading historical data...
Loading historical data...
Loading historical data...
Loading historical data...

DELTA 1 R/B Visibility forecast

Observer location: undefined°, undefined

Span
Click to sort rows by Start time (UTC) header in descending order
Start Az.
Max El. time (UTC)
Max El. Az.
Max El.
End time (UTC)
End Az.
12 mins2024-12-21 19:44:56.360Z28.987° NE2024-12-21 19:50:56.360Z134.314° SE43.351°2024-12-21 19:56:56.360Z194.737° SSW
9 mins2024-12-21 21:34:56.360Z353.844° N2024-12-21 21:38:56.360Z315.739° NNW23.49°2024-12-21 21:43:56.360Z264.787° W
12 mins2024-12-22 04:36:56.360Z100.274° ESE2024-12-22 04:42:56.360Z50.66° ENE26.305°2024-12-22 04:48:56.360Z359.878° N
16 mins2024-12-22 06:23:56.360Z162.44° S2024-12-22 06:31:56.360Z273.121° WNW44.215°2024-12-22 06:39:56.360Z334.592° NNW
8 mins2024-12-22 08:17:56.360Z235.178° WSW2024-12-22 08:21:56.360Z264.419° W15.762°2024-12-22 08:25:56.360Z293.719° NW
|